Preview of NWS' New Version of Forecast
This preview is not operational and should not be used for support decisions.

Regional Weather Roundup (RWR)

Issued by National Weather Service (NWS)

                            
000
ASUS42 KTBW 201118
RWRFL 
FLORIDA REGIONAL WEATHER ROUNDUP
NATIONAL WEATHER SERVICE TAMPA BAY RUSKIN FL
700 AM EDT TUE AUG 20 2019

NOTE: "FAIR" INDICATES FEW OR NO CLOUDS BELOW 12,000 FEET WITH NO
SIGNIFICANT WEATHER AND/OR OBSTRUCTIONS TO VISIBILITY.

FLZ001>010-012>015-112-114-115-201200-
PANHANDLE FLORIDA
  
CITY           SKY/WX    TMP DP  RH WIND       PRES   REMARKS
PENSACOLA      FAIR      78  78 100 S5        30.05R                  
PENSACOLA NAS  MOCLDY    79  78  97 SW3       30.04R                  
MILTON NAS     MOCLDY    73  73 100 NE3       30.07R                  
CRESTVIEW      MOCLDY    74  72  93 CALM      30.09R                  
DUKE FIELD     FAIR      75  75 100 SE3       30.07R                  
VALPARAISO     LGT RAIN  76  74  93 S12       30.06R                  
MARY ESTHER    CLOUDY    77  73  87 SE9       30.04                   
TRI COUNTY     FAIR      73  72  96 CALM      30.08                   
PANAMA CITY    FAIR      76  74  93 NE3       30.06R                  
TYNDALL AFB    MOCLDY    78  75  93 E3        30.06R                  
APALACHICOLA   FAIR      77  74  90 E3        30.07R                  

STATION/POSITION SKY/WX   TEMP    WIND        PRES    WAVE   SWELL
                          AIR SEA DIR/SP/G            HT/PER HT/PER
                          (F)     (DEG/KT/KT) (MB)    (FT/S) (FT/S)
30.1N   87.6W              81 84  240/  4/  6 1017.4R   2/ 7   2/ 7
29.2N   88.2W              80 83  180/ 10/ 12 1017.5S   2/ 7   2/ 7
28.8N   86.0W                 84  110/  6/  8 1017.8R   2/ 5   2/ 5
PANAMA CITY BEAC           83 86  180/  3/  5 1018.2R
TOWER C                    81     110/  5/  6 1018.7R
28.5N   84.5W              82      60/ 10/ 14 1018.5R   2/ 6   2/ 6

$$
FLZ011-016>038-118-127-128-134-139-239-201200-
NORTH FLORIDA
  
CITY           SKY/WX    TMP DP  RH WIND       PRES   REMARKS
MARIANNA       FAIR      75  75 100 CALM      30.07R                  
TALLAHASSEE    MOCLDY    76  76 100 SE3       30.08R                  
PERRY          FAIR      75  74  97 CALM      30.10R FOG              
LIVE OAK       PTCLDY    72  73 100 CALM      30.10R                  
CROSS CITY     FAIR      73  73  98 CALM      30.09R                  
LAKE CITY      FAIR      72  70  94 CALM      30.10R                  
GAINESVILLE    FAIR      72  71  97 CALM      30.12R                  
MAYPORT NAS    MOCLDY    77  74  90 CALM      30.10R                  
JACKSONVILLE   MOCLDY    75  74  96 W3        30.09R                  
JAX NAS        MOCLDY    78  73  84 CALM      30.10R                  
JAX CECIL      CLEAR     73  73 100 CALM      30.10R                  
FERNANDINA BEA FAIR      75  74  99 CALM      30.10R                  
ST AUGUSTINE   FAIR      76  73  91 NW3       30.11R                  
PALM COAST     CLEAR     73  73 100 CALM      30.09R                  

STATION/POSITION SKY/WX   TEMP    WIND        PRES    WAVE   SWELL
                          AIR SEA DIR/SP/G            HT/PER HT/PER
                          (F)     (DEG/KT/KT) (MB)    (FT/S) (FT/S)
SHELL POINT      NOT AVBL
KEATON BEACH               74      70/  4/  4 1019.2R
CEDAR KEY                  75      30/  2/  3 1019.0R
FERNANDINA                 81 82              1019.5F
30.7N   81.3W                 81                N/A     1/ 8
MAYPORT                    77 83  330/  4/  6 1019.2R
31.4N   80.9W              81 82  180/  6/  6 1019.1R   1/ 7   2/ 7
ST AUGUSTINE               80 81   50/  6/  7 1019.2R

$$
FLZ040-043>046-052-053-057-058-063-144-201200-
INTERIOR CENTRAL FLORIDA
  
CITY           SKY/WX    TMP DP  RH WIND       PRES   REMARKS
OCALA          FAIR      73  72  96 CALM      30.10R                  
LEESBURG       FAIR      76  74  93 N5        30.10R                  
SANFORD        FAIR      76  75  97 E3        30.08R                  
ORLANDO EXEC   FAIR      76  73  91 NE5       30.09R                  
ORLANDO INTL   FAIR      75  72  90 E5        30.09R                  
KISSIMMEE      FAIR      77  74  90 E6        30.10R                  
WINTER HAVEN   FAIR      79  75  87 E6        30.10R                  
LAKELAND       CLEAR     75  73  94 E3        30.09R                  
SEBRING        FAIR      75  74  96 CALM      30.09R                  
OKEECHOBEE     FAIR      73  72  94 CALM      30.07S                  

$$
FLZ041-047-054-059-064-141-147-201200-
EAST CENTRAL FLORIDA
  
CITY           SKY/WX    TMP DP  RH WIND       PRES   REMARKS
ORMOND BEACH   CLEAR     77  75  94 CALM      30.09                   
DAYTONA BEACH  MOCLDY    77  77 100 CALM      30.09R                  
DELAND         FAIR      75  73  94 CALM      30.09R                  
NEW SMYRNA BEA CLEAR     75  75 100 SE5       30.10                   
JFK SPACE CTR  FAIR     N/A N/A N/A E5          N/A                   
TITUSVILLE     PTCLDY    81  79  94 E3        30.09                   
CAPE CANAVERAL FAIR      77  76  99 CALM      30.07R                  
PATRICK AFB    FAIR      80  80 100 SE7       30.08R                  
MELBOURNE      FAIR      82  75  79 SE7       30.08R                  
VERO BEACH     FAIR      73  71  93 CALM      30.08R                  
FT PIERCE      FAIR      74  71  91 CALM      30.08R                  
STUART         PTCLDY    75  73  94 CALM      30.08R                  

STATION/POSITION SKY/WX   TEMP    WIND        PRES    WAVE   SWELL
                          AIR SEA DIR/SP/G            HT/PER HT/PER
                          (F)     (DEG/KT/KT) (MB)    (FT/S) (FT/S)
28.5N   80.2W              83 84  130/  8/ 10 1018.7R   2/ 4   2/ 4
28.9N   78.5W              84 86  120/  8/ 12 1019.5R   2/ 8   2/ 8
TRIDENT PIER               78 80   60/  3/  5 1019.9R
28.4N   80.5W                 80                N/A     2/ 5
27.5N   80.2W                 83                N/A     2/ 4

$$
FLZ050-056-061-142-242-148-248-149-249-151-251-155-255-
160-260-201200-
WEST CENTRAL FLORIDA
  
CITY           SKY/WX    TMP DP  RH WIND       PRES   REMARKS
CRYSTAL RIVER  FAIR      73  72  94 CALM      30.09R                  
INVERNESS      FAIR      73  73 100 CALM      30.10R                  
BROOKSVILLE    FAIR      75  73  93 CALM      30.09R                  
CLEARWATER AIR FAIR      75  73  94 E3        30.07R                  
ST PETE CLEARW FAIR      78  75  90 NE6       30.07R                  
TAMPA INTL     FAIR      77  74  90 CALM      30.08R                  
PLANT CITY     FAIR     N/A N/A N/A CALM      30.10R                  
MACDILL AFB    FAIR      77  74  93 E6        30.07R                  
PETER O KNIGHT FAIR     N/A N/A N/A NE5       30.08R                  
ST PETERSBURG  FAIR      80  76  87 E9        30.06R                  
SARASOTA       FAIR      76  75  97 E5        30.04R                  
VENICE         FAIR      77  77 100 E8        30.06R                  

STATION/POSITION SKY/WX   TEMP    WIND        PRES    WAVE   SWELL
                          AIR SEA DIR/SP/G            HT/PER HT/PER
                          (F)     (DEG/KT/KT) (MB)    (FT/S) (FT/S)
27.3N   84.2W                 85                N/A     3/ 6
CLEARWATER BEACH           78 86   70/  5/  8 1018.4R
MIDDLE TAMPA BAY           78     110/  9/ 11 1018.1R
VENICE                     76 86   80/  5/  6 1017.9R

$$
FLZ066-069-070-075>078-162-262-165-265-201200-
SOUTHWEST FLORIDA AND KEYS
  
CITY           SKY/WX    TMP DP  RH WIND       PRES   REMARKS
PUNTA GORDA    FAIR      75  75 100 CALM      30.08R                  
FT MYERS       FAIR      75  73  93 E5        30.05R                  
SOUTHWEST INTL FAIR      76  73  91 E8        30.05S                  
NAPLES         FAIR      77  75  93 E8        30.04R                  
IMMOKALEE      FAIR      73  73 100 E5        30.04S                  
MARATHON       FAIR      83  74  74 SE10G17   30.02S                  
KEY WEST NAS   FAIR      85  75  72 SE16      30.02R                  
KEY WEST INTL  FAIR      84  74  71 SE13      30.02R                  

STATION/POSITION SKY/WX   TEMP    WIND        PRES    WAVE   SWELL
                          AIR SEA DIR/SP/G            HT/PER HT/PER
                          (F)     (DEG/KT/KT) (MB)    (FT/S) (FT/S)
NAPLES                     77 85              1017.2R
26.0N   85.6W              84 86   90/ 10/ 12 1016.8R   3/ 7   2/ 7
DRY TORTUGAS               85     120/ 12/ 14 1016.4R
SAND KEY                   83     120/ 16/ 19 1015.3
SOMBRERO KEY               83     130/ 15/ 18 1016.9
LONG KEY                   83                 1016.0

$$
FLZ067-068-071>074-168-172>174-201200-
SOUTHEAST FLORIDA 
  
CITY           SKY/WX    TMP DP  RH WIND       PRES   REMARKS
W PALM BEACH   FAIR      81  73  76 E7        30.07R                  
BOCA RATON     TSTM      77  73  88 S16G26    30.10  VSB 1            
FT LAUDER-EXEC TSTM      76  72  87 E9        30.08R                  
FT LAUDERDALE  CLOUDY    77  72  84 SE9       30.08R                  
POMPANO BEACH  RAIN      77  74  90 SE10      30.10R FOG              
PEMBROKE PINES LGT RAIN  78  72  81 E12       30.09R                  
OPA LOCKA      LGT RAIN  79  75  87 E13       30.08R                  
MIAMI          CLOUDY    81  72  74 E7        30.07R                  
WEST KENDALL   FAIR      78  74  87 SE5       30.06R                  
HOMESTEAD      FAIR      80  73  80 E7        30.05R                  

STATION/POSITION SKY/WX   TEMP    WIND        PRES    WAVE   SWELL
                          AIR SEA DIR/SP/G            HT/PER HT/PER
                          (F)     (DEG/KT/KT) (MB)    (FT/S) (FT/S)
PORT EVERGLADES            76     160/  3/  5 1017.4
VIRGINIA KEY               81 89   90/ 10/ 13 1017.2R
LAKE WORTH                        110/ 10/ 12   N/A
FOWEY ROCKS                80 86  110/ 16/ 18 1018.5R
SETTLEMENT POINT           82     130/  7/  9 1018.8R

$$